Reflectivity
-20 -20 -20 -20 -20 -20 -20 -20 -20 -20 -20 -20 -20 -20 -20 -20 -20 -20 -20 -20 -20 -20 -19 -20 -11 -4 6 7 1 -20 -20 -20 -20 -20 -20 -20 -20 -20 -20 -20 -20 23 13 -1 4 5 -3 -20 -20
-20 -20 -20 -20 -20 -20 -20 -20 -20 -20 -20 -20 -20 -20 -20 -20 -20 -20 -20 -20 -20 -20 -20 -20 -20 -11 1 5 -13 -20 -20 -20 -20 -20 -20 -20 -20 -20 -20 -20 -20 2 6 1 6 -5 -20 -20 -20
-20 -20 -20 -20 -20 -20 -20 -20 -20 -20 -20 -20 -20 -20 -20 -20 -20 -20 -20 -20 -20 -20 -20 -6 -20 -20 -15 -15 -20 -20 -20 -20 -20 -20 -20 -20 -20 -20 -20 -14 9 3 5 7 -13 -20 -20 -20 -20
-20 -20 -20 -20 -20 -20 -20 -20 -20 -20 -20 -20 -20 -20 -20 -20 -20 -20 -20 -20 -20 -20 -20 -20 -20 -20 -20 -20 -20 -20 -20 -20 -20 -20 -20 -7 2 -20 -20 -20 -0 1 10 4 -20 -20 -20 -20 -20
-20 -20 -20 -20 -20 -20 -20 -20 -20 -20 -20 -20 -20 -20 -20 -20 -20 -20 -20 -20 -20 -20 -16 -10 -20 -20 -20 -20 -20 -20 -20 -20 -7 -20 -20 3 11 -18 -20 -20 -20 -9 -7 -20 -20 -20 -20 -20 -20
-20 -20 -20 -20 -20 -20 -20 -20 -20 -20 -20 -20 -20 -20 -20 -19 -20 -20 -20 -20 -17 -20 -20 -3 -13 -20 -20 -20 -17 -20 -20 -20 6 -6 -20 -3 11 -20 -20 -20 -20 1 -9 -20 -20 -20 -20 -20 -20
-20 -20 -20 -20 -20 -20 -20 -20 -20 -20 -20 -20 -20 -20 -20 -14 -4 -13 -20 -20 -19 -20 -7 1 -2 -1 1 -17 -20 -20 -20 -20 -20 3 -20 -19 6 -20 -20 -20 -20 11 1 -20 -20 -20 -20 -20 -20
-20 -20 -20 -20 -20 -20 -20 -20 -20 -20 -20 -20 -20 -20 -20 -20 14 -20 -20 -9 10 6 6 3 4 3 -1 -2 -20 -20 -20 -20 -20 1 -20 -16 9 -13 -19 -20 -16 9 -2 -20 -20 -20 -20 -20 -20
-20 -20 -20 -20 -20 -20 -20 -20 -20 -20 -20 -20 -20 -20 -20 -20 -20 6 -0 11 13 10 8 10 1 5 -20 -20 4 -13 -19 -20 -20 -16 -20 -20 12 14 -4 4 2 -7 -20 -20 -20 -20 -20 -20 -20
-20 -20 -20 -20 -20 -20 -20 -20 -20 -20 -20 -20 -20 -20 -20 -4 -11 -20 -10 5 10 13 12 11 10 -13 -20 -20 -20 -14 1 -20 2 11 -14 -20 11 -1 -1 5 -13 -20 -14 -18 -20 -20 -20 -20 -20
-20 -20 -20 -20 -20 -20 -20 -20 -20 -20 -20 -20 -20 -20 -20 6 6 -3 1 5 5 14 9 13 11 -11 -4 -20 -20 -20 -20 -20 -20 -19 -20 -20 -2 -17 -6 -6 -8 -18 -20 -20 -20 -20 -20 -20 -20
-20 -20 -20 -20 -20 -20 -20 -20 -20 -20 -20 -20 -20 -20 -20 -7 -20 -20 0 -20 2 -10 11 7 -12 3 -17 1 -2 3 7 -20 -20 -20 -20 -12 6 13 -18 -20 -20 -6 -20 -20 -20 -20 -20 -20 -20
-20 -20 -20 -20 -20 -20 -20 -20 -20 -20 -20 -20 -20 -20 -20 -20 -11 -1 -20 -14 -3 1 12 15 12 5 -0 -20 -14 -20 -14 -15 -20 -20 -12 -17 0 11 1 -6 -20 -20 -20 -20 -20 -20 -20 -20 -20
-20 -20 -20 -20 -20 -20 -20 -20 -20 -20 -20 -20 -20 -20 -20 -20 -20 -5 -13 1 0 8 1 -10 12 8 2 2 -4 2 -18 -20 -20 -20 -12 -17 -7 7 8 -20 4 -20 -20 -20 -20 -20 -20 -20 -20
-20 -20 -20 -20 -20 -20 -20 -20 -20 -20 -20 -20 -20 -20 -20 -20 -20 -20 -8 -20 -13 -6 11 -13 6 -0 -18 -6 -11 -2 -20 -20 -20 -20 -20 -16 3 7 9 8 1 -20 -20 -20 -20 -20 -20 -20 -20
-20 -20 -20 -20 -20 -20 -20 -20 -20 -20 -20 -20 -20 -20 -20 -20 -20 -20 -20 -19 -18 -1 0 9 9 -10 -16 0 -20 -4 -2 -20 -20 -20 -20 -16 7 7 10 9 -20 -20 -20 -20 -20 -20 -20 -20 -20
-20 -20 -20 -20 -20 -20 -20 -20 -20 -20 -20 -20 -20 -20 -20 -20 -20 -20 -20 6 -15 5 9 9 7 -6 5 3 -13 -20 -20 -20 -20 -20 -20 -19 -14 10 6 11 -20 -20 -20 -20 -20 -20 -20 -20 -20
-20 -20 -20 -20 -20 -20 -20 -20 -20 -20 -20 -20 -20 -20 -20 -20 -20 -20 -20 -9 -20 -16 2 3 29 9 3 -1 -18 -19 1 -6 -20 -16 -20 -20 6 2 -13 -20 -20 -20 -20 -20 -20 -20 -20 -20 -20
-20 -20 -20 -20 -20 -20 -20 -20 -20 -20 -20 -20 -20 -20 -20 -20 -20 -20 -20 8 2 11 9 11 3 6 22 19 3 10 -5 1 -20 -11 -20 -18 9 4 -1 -20 -20 -20 -20 -20 -20 -20 -20 -20 -20
-20 -20 -20 -20 -20 -20 -20 -20 -20 -20 -20 -20 -20 -20 -20 -20 -20 -20 -20 -20 -3 3 9 12 11 19 14 31 28 6 -17 -20 -20 2 -3 -12 9 10 -6 -20 -6 -20 -20 -8 -20 -20 -20 -20 -20
-20 -20 -20 -20 -20 -20 -20 -20 -20 -20 -20 -20 -20 -20 -20 -20 -20 -20 -20 -20 5 11 3 12 4 9 12 25 34 34 -5 -20 -20 -17 12 11 10 13 -18 -20 -20 -20 -20 -20 -20 -20 -20 -20 -20
-20 -20 -20 -20 -7 -20 -20 -20 -20 -20 -20 -20 -20 -20 -20 -20 -20 -20 -20 -20 -20 10 13 3 21 -17 22 7 14 22 39 -1 -18 -8 3 13 8 11 -15 -20 -20 -14 -20 -20 -20 -20 -20 -20 -20
-20 -20 -20 -20 -20 -16 -20 -20 -20 -20 -20 -20 -20 -20 -20 -20 -20 -20 -20 -20 -20 -12 6 2 -13 -6 -11 -16 28 18 31 30 -3 -20 6 10 6 -15 -17 -19 -2 -20 -20 -20 -20 -20 -16 -20 -20
-20 -20 -20 -20 -20 5 -20 -20 -20 -20 -20 -20 -20 -20 -20 -20 -20 -20 -20 -20 -20 -20 -3 16 3 8 20 -13 11 18 13 33 31 -17 -20 -20 4 -6 -4 24 2 -16 -20 -20 -20 -17 -2 -20 -20
-20 1 10 12 21 7 -20 -20 -20 -20 -20 -20 -20 -20 -20 -20 -20 -20 -20 -20 -20 -20 -20 -20 8 9 17 1 -14 -1 9 19 33 18 -5 -20 8 -13 -7 -9 -17 -20 -20 -20 -20 -10 -17 -7 -20
-16 -20 9 12 7 2 -20 -14 -20 -20 -20 -20 -20 -20 -20 -20 -20 -20 -20 -20 -20 -20 -20 12 14 -1 9 11 4 4 9 10 25 31 4 -9 -19 0 5 -19 -20 -20 -20 -20 -20 -20 14 -20 -20
11 -20 -20 10 -14 12 -20 -16 -14 23 14 -15 -20 -20 -20 -20 -20 -20 -20 -20 -20 -20 -20 0 6 4 -8 10 -9 -11 -3 -9 4 15 26 -19 -17 -8 4 -20 -20 24 13 -20 16 -20 -5 -20 -20
-2 22 -4 17 2 24 14 -15 19 -7 -16 -20 -20 -20 -20 -20 -20 -20 -20 -20 -20 -20 -20 -20 -17 12 11 -20 -16 -20 -17 -3 -2 -5 -4 24 -17 6 7 -9 -19 21 -20 -20 -20 -20 -20 -20 -20
13 7 15 -6 9 17 16 22 12 0 -20 -20 -20 -20 -20 -20 -20 -20 -20 -20 -20 -20 -20 -20 -20 -3 15 7 1 -14 -8 -2 -12 -20 -17 22 4 8 9 -20 -20 19 -20 -20 -20 -20 -20 -20 -20
2 21 -19 8 24 22 23 12 5 -19 -20 -9 -11 -20 -20 -20 -20 -20 -20 -20 -20 -20 -20 -20 -20 -19 -5 11 8 -0 3 0 9 4 -5 0 11 4 2 4 -16 19 -2 -20 -20 -20 -20 -20 -20
Wind_Speed
13 8 5 6 8 6 7 7 3 5 5 3 3 3 2 5 2 6 6 9 20 20 20 19 17 16 15 17 18 19 20 20 19 18 17 17 17 17 17 19 19 20 22 23 22 21 20 21 21
8 6 6 2 9 10 7 4 12 6 6 4 5 4 5 6 6 9 13 13 21 20 19 19 17 16 16 17 18 18 19 20 19 18 17 16 16 16 18 19 19 20 22 23 21 21 21 21 21
7 5 7 5 10 12 7 10 9 6 2 4 4 2 3 6 4 10 10 20 21 19 19 19 17 17 16 16 17 17 18 19 18 18 17 17 16 16 20 19 19 21 22 21 21 21 21 20 21
5 6 4 10 14 11 10 7 5 8 4 2 1 6 6 4 4 5 19 22 20 19 19 19 17 17 17 16 17 16 16 16 17 17 17 17 18 18 19 19 20 22 21 21 21 21 21 21 20
5 3 8 13 17 13 9 4 5 6 2 3 3 5 4 5 6 15 19 19 19 16 19 20 15 16 17 16 16 16 14 14 15 16 15 16 19 20 20 21 21 21 21 21 21 21 21 21 20
7 5 9 13 15 10 12 8 8 6 5 7 7 4 5 2 11 18 19 19 17 17 19 20 18 16 16 16 14 14 13 13 14 15 14 16 19 21 21 21 22 19 20 21 21 21 21 20 20
12 8 13 13 10 10 13 5 12 12 9 12 4 7 5 4 11 16 18 17 15 16 18 17 19 18 15 14 12 11 12 13 13 14 13 16 21 21 21 21 21 19 20 21 21 21 20 20 18
8 7 7 11 11 15 6 7 0 10 10 2 3 7 7 12 14 16 15 16 14 15 17 17 16 18 17 15 12 12 13 12 13 14 13 16 21 20 21 20 19 19 20 21 21 20 20 20 18
3 8 11 15 12 7 4 8 5 1 5 4 2 3 6 19 18 15 15 15 15 13 17 16 16 14 16 16 14 14 14 14 14 15 14 16 13 16 14 20 18 19 20 19 20 20 19 19 15
11 10 14 4 5 4 6 6 5 7 8 8 7 8 13 18 17 18 18 17 18 15 16 16 15 12 16 14 17 15 14 13 13 15 16 9 11 10 14 18 19 20 19 19 19 18 17 15 10
9 13 7 5 3 5 6 6 3 7 9 5 3 9 12 15 14 15 16 17 15 19 12 17 16 12 11 13 13 9 9 9 10 16 11 11 10 11 10 9 10 12 15 10 12 11 6 9 7
10 11 6 0 6 6 9 1 8 8 5 5 4 6 12 15 16 15 14 16 18 18 18 16 17 16 12 9 8 7 7 5 9 11 12 9 8 11 10 8 10 9 6 10 7 7 10 10 11
13 8 6 8 5 7 4 12 9 10 9 8 7 7 11 13 15 14 15 11 14 18 14 18 16 17 13 11 11 9 9 9 10 11 12 10 11 11 8 10 8 7 9 8 9 10 9 10 11
3 8 11 6 10 8 12 13 6 9 11 14 11 10 12 13 14 16 15 13 14 14 14 15 16 14 15 13 11 11 9 10 9 10 10 11 9 10 9 10 8 9 8 9 9 9 9 9 9
6 11 13 13 12 12 8 18 18 16 12 10 14 13 11 13 14 16 19 17 16 13 14 17 16 14 13 15 12 11 9 11 10 9 12 12 13 13 12 9 9 9 9 11 10 9 9 9 9
10 7 15 6 13 8 10 13 6 3 13 15 13 10 10 11 14 16 16 15 15 16 18 18 14 17 14 15 10 9 10 10 10 10 10 14 13 15 12 10 10 10 10 9 9 9 9 9 8
14 16 13 12 9 6 18 12 16 6 5 8 10 10 8 7 10 13 15 15 18 20 19 18 16 16 17 13 10 9 11 10 9 10 10 13 13 15 12 10 9 12 10 9 9 9 9 9 9
16 18 17 14 10 12 15 17 9 10 6 6 6 7 8 7 7 9 13 16 17 18 17 17 15 16 16 10 9 9 8 10 10 9 11 15 12 14 12 10 11 10 9 10 10 11 9 9 9
19 12 13 6 8 7 14 15 14 11 13 13 11 9 9 10 9 6 10 15 16 16 18 18 18 18 13 10 10 9 9 11 10 8 14 14 14 14 14 9 11 11 9 10 11 11 13 10 9
19 21 21 14 11 7 14 18 17 17 15 14 13 13 12 11 12 10 10 14 14 16 18 20 19 18 15 10 8 9 10 11 10 11 11 15 14 15 14 14 12 14 9 13 12 11 10 10 11
20 20 18 19 11 15 14 21 22 19 19 18 18 16 15 15 14 13 12 13 16 17 18 19 19 19 18 18 10 7 9 9 11 12 11 14 14 14 15 16 13 13 11 11 12 11 13 11 11
21 19 19 19 15 16 16 11 13 16 10 10 9 11 13 15 14 12 13 15 16 19 19 19 18 17 16 19 14 14 11 13 12 10 12 10 14 14 14 16 16 13 10 13 12 10 10 9 12
16 18 14 19 19 18 18 9 14 15 10 11 9 10 10 10 11 12 13 13 15 18 17 16 18 18 18 19 17 12 11 8 11 12 15 15 12 13 11 14 16 14 10 15 14 13 10 10 10
16 13 15 17 16 20 23 17 10 13 13 9 6 5 2 2 3 5 6 10 12 15 17 16 17 17 18 20 22 17 16 12 11 15 14 13 11 11 14 15 14 15 13 14 15 14 14 11 11
14 14 11 13 11 11 20 17 16 6 8 5 2 2 4 4 4 5 5 6 10 14 15 14 18 16 19 21 23 23 22 22 19 17 15 16 13 11 15 17 15 13 15 14 16 13 14 12 12
9 19 12 19 16 13 15 13 9 13 10 9 4 6 5 8 8 9 8 8 7 11 15 14 17 19 19 21 23 21 25 14 15 17 13 13 13 14 16 17 18 17 17 17 17 11 11 15 13
9 14 23 9 15 12 18 9 12 10 8 5 6 8 10 11 12 13 13 11 10 10 14 18 18 20 21 21 20 23 20 18 16 19 18 14 15 14 17 18 18 17 17 17 18 12 17 16 14
17 8 13 4 7 9 9 22 8 12 11 12 12 13 14 15 15 14 14 14 13 12 12 17 20 21 19 23 22 20 21 19 17 15 15 19 17 19 17 18 17 18 17 17 19 15 14 13 13
8 6 9 13 4 7 9 8 7 13 13 15 15 15 18 18 16 15 15 16 17 16 16 16 20 22 23 21 21 20 20 20 18 17 17 16 17 19 18 19 18 18 18 18 19 18 17 18 17
11 9 16 12 6 6 6 7 10 13 15 14 14 14 16 18 18 16 16 17 19 20 18 19 19 21 22 22 20 21 21 20 19 18 18 17 18 19 18 19 19 19 19 20 20 20 19 20 19
Wind_Direction
285 289 267 240 240 237 239 170 3 174 167 63 127 219 276 14 336 37 137 141 141 141 141 145 130 132 131 125 124 124 124 124 122 122 120 118 117 115 108 101 102 102 98 95 91 91 89 86 85
305 281 230 238 254 227 203 158 195 154 89 126 137 187 197 110 69 108 136 156 153 141 147 144 132 134 132 129 126 127 128 127 127 126 122 121 118 110 108 106 105 100 97 95 95 91 90 91 89
261 257 250 235 243 246 257 196 186 113 71 195 146 295 33 70 78 141 126 155 146 145 151 130 134 133 133 130 128 130 129 129 129 128 126 126 117 106 106 107 105 101 98 99 96 95 94 94 93
227 188 208 242 235 243 246 175 230 169 146 317 6 156 110 62 127 134 148 151 149 148 145 132 132 133 133 133 131 130 129 129 128 130 130 129 120 108 108 106 102 98 100 98 97 97 95 94 93
215 238 231 235 241 231 231 185 171 198 276 200 317 131 97 69 120 139 152 151 146 148 131 146 131 133 133 135 133 131 129 127 128 128 128 122 117 111 107 103 101 102 103 101 100 99 98 96 95
198 274 231 230 229 221 246 213 202 210 242 251 258 232 68 19 154 146 154 151 139 153 145 142 136 135 133 135 130 128 127 125 127 127 125 119 111 108 108 107 103 105 106 105 104 102 100 98 93
256 227 246 259 253 221 243 252 241 243 227 238 238 233 99 157 150 157 154 135 149 154 150 153 152 141 128 128 125 124 121 120 122 126 120 115 110 112 110 108 104 109 110 107 104 103 102 97 90
263 260 238 237 240 239 175 217 357 226 225 13 268 210 176 162 160 151 140 149 145 158 155 157 151 156 156 148 122 117 114 112 113 116 117 110 115 116 113 110 109 111 110 108 106 105 102 97 91
240 238 237 234 234 238 163 206 162 173 196 161 97 6 53 145 150 154 152 152 152 162 158 160 155 160 160 153 138 122 116 112 112 120 123 144 131 131 128 102 112 112 109 108 107 106 103 96 87
220 234 235 315 266 232 176 221 154 205 192 146 111 69 118 146 161 167 168 164 163 161 165 163 154 163 157 155 157 157 147 154 152 146 159 150 127 113 112 111 113 112 109 108 112 120 137 142 123
194 243 245 197 241 269 206 206 200 170 215 168 97 124 137 156 169 174 184 172 168 163 159 162 155 139 162 158 170 165 168 159 157 158 169 116 128 121 121 122 126 127 131 124 133 157 121 99 100
235 240 236 8 194 213 230 273 234 239 199 110 60 131 158 176 180 183 190 177 175 178 164 174 160 155 164 152 155 146 140 157 167 163 143 151 149 136 135 139 143 150 131 129 127 106 104 102 94
236 235 240 240 223 238 257 243 250 247 242 249 224 187 187 191 190 188 189 181 175 180 173 169 163 163 160 158 165 156 153 168 175 163 141 170 158 142 146 142 163 140 139 134 121 127 118 113 109
72 249 240 228 233 235 242 245 217 228 248 240 220 225 207 205 203 182 189 181 183 171 179 161 166 166 164 163 162 164 164 165 178 168 151 173 162 154 153 152 149 145 146 135 134 129 131 117 115
241 250 228 227 226 245 245 247 233 242 224 231 215 217 216 211 204 199 193 187 177 174 174 164 163 165 175 155 169 169 167 165 181 153 172 170 172 163 158 157 162 152 137 137 124 134 126 128 115
244 227 238 197 206 210 209 253 106 289 221 216 194 211 225 221 212 208 193 187 183 175 175 169 168 169 178 162 168 168 168 178 179 162 177 172 176 169 166 165 164 150 149 144 141 143 135 130 127
216 257 214 198 209 214 212 240 143 134 147 180 209 217 227 228 212 214 197 181 185 187 181 175 173 172 176 178 163 163 168 197 179 169 181 180 177 175 172 170 162 162 156 152 151 144 143 136 132
238 224 253 229 172 216 209 236 167 207 207 200 226 225 219 236 233 214 213 189 184 185 183 175 172 173 171 169 157 162 167 210 191 170 179 183 177 175 174 170 152 169 167 161 156 151 150 145 141
273 265 261 230 132 273 227 227 228 220 234 243 239 242 242 239 238 228 219 189 189 190 182 182 174 172 165 159 164 166 177 200 198 188 175 188 178 173 176 163 156 173 165 165 162 155 155 148 143
250 254 245 236 205 275 257 250 248 241 245 248 257 251 248 242 235 221 220 201 194 189 183 185 179 172 169 163 166 176 190 195 199 184 185 195 183 173 176 169 173 176 153 163 169 167 162 156 166
245 247 249 249 228 225 269 263 250 246 247 247 246 245 241 239 235 223 214 208 193 188 188 188 182 180 173 168 158 185 192 202 204 201 181 195 189 179 174 177 178 179 173 170 173 173 176 168 179
258 245 246 259 230 242 221 266 241 214 196 212 212 215 220 223 226 232 218 211 197 202 194 190 188 182 179 170 171 183 181 201 205 208 193 191 192 185 177 176 176 176 166 173 175 180 184 183 185
278 276 243 239 235 239 231 247 247 240 223 238 216 205 204 205 214 214 221 214 207 195 199 190 188 181 176 175 179 178 178 211 204 206 210 183 187 188 170 179 179 180 177 180 177 178 191 197 194
262 288 253 238 232 230 228 233 240 223 202 197 129 135 145 194 206 256 253 239 221 206 193 190 187 184 183 178 181 180 188 202 232 206 203 198 185 185 180 182 182 183 180 178 180 184 194 206 207
226 234 214 212 215 224 210 223 226 69 123 109 10 32 11 355 337 319 302 261 228 220 198 187 190 188 183 183 184 187 199 190 213 233 211 195 184 190 189 179 183 186 185 185 186 184 191 198 205
225 218 238 212 207 206 213 212 214 221 47 57 36 8 8 351 341 327 317 309 285 250 216 192 196 191 188 190 190 196 207 205 195 211 216 208 200 194 189 182 183 187 188 190 192 183 193 199 210
226 228 225 276 266 244 196 178 91 124 105 31 8 358 359 347 336 323 317 304 289 266 247 213 198 200 194 194 197 204 208 212 206 208 208 215 202 196 190 188 185 189 190 188 191 188 193 202 205
239 340 202 147 259 193 184 180 96 37 3 352 351 351 350 345 332 324 315 310 297 276 258 238 223 204 198 200 204 207 213 214 220 212 214 210 203 200 191 186 187 189 190 188 193 193 193 195 201
158 228 237 185 255 287 174 94 40 23 5 346 344 350 336 337 331 322 318 313 302 285 261 241 225 221 204 203 208 212 212 210 215 218 216 213 209 202 196 188 185 190 189 190 194 196 189 196 203
48 217 219 183 173 241 260 86 25 15 4 354 347 341 336 331 328 322 322 317 310 294 253 233 222 215 219 206 208 212 208 210 213 212 211 208 211 206 194 195 188 194 191 192 196 197 194 197 203